contact: severine.martini@mio.osupytheas.fr, dominique.lefevre@mio.osupytheas.fr
Project:EMSO Ligure-ouest http://www.emso-fr.org/EMSO-France
Sensor Optode, line 4330 Serial 272 
DOI : "https://doi.org/10.17882/97948" 
Title:EMSO Ligure Ouest : Data BathyDock capteur Optode - deploiement "2023-04-28"
Datetime,Profondeur,Latitude,Longitude,optode_type,serial,O2_concentration,O2_saturation,Temperature,Calibrated_Phase,Temp_Compensated_Phase,phase_blue_light,phase_red_light,Amplitude_blue_light,Amplitude_red_light,thermistor_bridge
time,m,degree_north,degree_east,1,1,umol.l-1,%,degree_C,degree,degree,degree,degree,mV,mV,mV
2024-02-02T00:00:08,2420,42.8014,5.9826,4330,272,186.050,56.989,13.315,36.064,36.644,41.230,4.586,296.1,546.5,291.1
2024-02-02T00:03:07,2420,42.8014,5.9826,4330,272,186.022,56.983,13.318,36.065,36.645,41.234,4.589,296.2,546.5,291.0
2024-02-02T00:06:07,2420,42.8014,5.9826,4330,272,186.244,57.046,13.314,36.052,36.631,41.225,4.594,296.2,546.5,291.1
2024-02-02T00:09:08,2420,42.8014,5.9826,4330,272,185.935,56.953,13.315,36.072,36.652,41.239,4.588,296.2,546.5,291.1
2024-02-02T00:12:08,2420,42.8014,5.9826,4330,272,186.304,57.069,13.317,36.047,36.627,41.218,4.592,296.2,546.5,291.0
2024-02-02T00:15:08,2420,42.8014,5.9826,4330,272,186.271,57.056,13.315,36.050,36.630,41.225,4.595,296.2,546.5,291.1
2024-02-02T00:18:08,2420,42.8014,5.9826,4330,272,186.084,57.000,13.316,36.061,36.641,41.234,4.593,296.1,546.5,291.0
2024-02-02T00:21:07,2420,42.8014,5.9826,4330,272,186.148,57.017,13.314,36.058,36.638,41.229,4.591,296.2,546.4,291.1
2024-02-02T00:24:07,2420,42.8014,5.9826,4330,272,186.148,57.017,13.314,36.059,36.638,41.238,4.600,296.3,546.5,291.1
2024-02-02T00:27:07,2420,42.8014,5.9826,4330,272,186.125,57.011,13.314,36.059,36.639,41.228,4.588,296.2,546.4,291.1
2024-02-02T00:30:07,2420,42.8014,5.9826,4330,272,186.236,57.044,13.314,36.052,36.632,41.221,4.589,296.2,546.6,291.1
2024-02-02T00:33:08,2420,42.8014,5.9826,4330,272,186.140,57.016,13.315,36.058,36.638,41.228,4.590,296.2,546.5,291.1
2024-02-02T00:36:08,2420,42.8014,5.9826,4330,272,186.108,57.006,13.315,36.060,36.640,41.231,4.591,296.2,546.5,291.1
2024-02-02T00:39:07,2420,42.8014,5.9826,4330,272,185.957,56.961,13.316,36.070,36.649,41.238,4.589,296.1,546.5,291.0
2024-02-02T00:42:07,2420,42.8014,5.9826,4330,272,186.069,56.993,13.314,36.064,36.644,41.238,4.595,296.3,546.4,291.1
2024-02-02T00:45:07,2420,42.8014,5.9826,4330,272,185.892,56.938,13.314,36.075,36.655,41.245,4.591,296.3,546.4,291.1
2024-02-02T00:48:07,2420,42.8014,5.9826,4330,272,186.063,56.991,13.314,36.063,36.643,41.233,4.590,296.3,546.5,291.1
2024-02-02T00:51:07,2420,42.8014,5.9826,4330,272,186.035,56.983,13.314,36.065,36.645,41.238,4.593,296.2,546.5,291.1
2024-02-02T00:54:08,2420,42.8014,5.9826,4330,272,185.911,56.945,13.315,36.073,36.653,41.242,4.590,296.2,546.5,291.1
2024-02-02T00:57:08,2420,42.8014,5.9826,4330,272,185.874,56.933,13.314,36.077,36.656,41.240,4.583,296.2,546.6,291.1
2024-02-02T01:00:08,2420,42.8014,5.9826,4330,272,186.132,57.012,13.314,36.059,36.639,41.231,4.592,296.2,546.5,291.1
2024-02-02T01:03:07,2420,42.8014,5.9826,4330,272,186.086,56.997,13.313,36.063,36.642,41.228,4.585,296.2,546.5,291.1
2024-02-02T01:06:07,2420,42.8014,5.9826,4330,272,185.901,56.941,13.314,36.074,36.654,41.244,4.590,296.2,546.5,291.1
2024-02-02T01:09:07,2420,42.8014,5.9826,4330,272,186.250,57.047,13.313,36.052,36.632,41.223,4.592,296.2,546.5,291.1
2024-02-02T01:12:07,2420,42.8014,5.9826,4330,272,186.063,56.992,13.315,36.064,36.643,41.236,4.592,296.2,546.5,291.1
2024-02-02T01:15:08,2420,42.8014,5.9826,4330,272,186.341,57.076,13.314,36.046,36.626,41.218,4.592,296.3,546.5,291.1
2024-02-02T01:18:08,2420,42.8014,5.9826,4330,272,185.990,56.972,13.317,36.067,36.647,41.231,4.584,296.3,546.4,291.0
2024-02-02T01:21:08,2420,42.8014,5.9826,4330,272,186.033,56.982,13.314,36.066,36.646,41.239,4.593,296.3,546.6,291.1
2024-02-02T01:24:08,2420,42.8014,5.9826,4330,272,186.182,57.025,13.312,36.057,36.637,41.231,4.593,296.3,546.5,291.2
2024-02-02T01:27:08,2420,42.8014,5.9826,4330,272,186.194,57.033,13.315,36.054,36.634,41.229,4.595,296.3,546.4,291.1
2024-02-02T01:30:07,2420,42.8014,5.9826,4330,272,186.220,57.041,13.316,36.053,36.633,41.227,4.595,296.2,546.4,291.0
2024-02-02T01:33:07,2420,42.8014,5.9826,4330,272,185.951,56.962,13.318,36.069,36.649,41.238,4.589,296.3,546.4,291.0
2024-02-02T01:36:07,2420,42.8014,5.9826,4330,272,186.014,56.974,13.313,36.068,36.648,41.240,4.593,296.3,546.3,291.1
2024-02-02T01:39:08,2420,42.8014,5.9826,4330,272,185.999,56.974,13.316,36.067,36.646,41.236,4.590,296.2,546.5,291.0
2024-02-02T01:42:08,2420,42.8014,5.9826,4330,272,186.092,57.005,13.318,36.060,36.640,41.235,4.595,296.3,546.4,291.0
2024-02-02T01:45:08,2420,42.8014,5.9826,4330,272,185.822,56.918,13.314,36.079,36.659,41.253,4.594,296.3,546.5,291.1
2024-02-02T01:48:08,2420,42.8014,5.9826,4330,272,185.853,56.932,13.318,36.076,36.655,41.242,4.586,296.2,546.4,291.0
2024-02-02T01:51:07,2420,42.8014,5.9826,4330,272,185.855,56.924,13.312,36.078,36.658,41.251,4.593,296.3,546.5,291.2
2024-02-02T01:54:07,2420,42.8014,5.9826,4330,272,185.943,56.954,13.314,36.072,36.652,41.239,4.587,296.2,546.5,291.1
2024-02-02T01:57:07,2420,42.8014,5.9826,4330,272,186.032,56.981,13.314,36.066,36.646,41.242,4.597,296.2,546.4,291.1
2024-02-02T02:00:08,2420,42.8014,5.9826,4330,272,186.228,57.042,13.315,36.053,36.633,41.226,4.593,296.2,546.5,291.1
2024-02-02T02:03:07,2420,42.8014,5.9826,4330,272,185.998,56.971,13.314,36.068,36.648,41.239,4.591,296.3,546.5,291.1
2024-02-02T02:06:07,2420,42.8014,5.9826,4330,272,186.108,56.999,13.310,36.063,36.643,41.235,4.592,296.2,546.5,291.2
2024-02-02T02:09:07,2420,42.8014,5.9826,4330,272,186.019,56.975,13.312,36.068,36.648,41.236,4.588,296.3,546.4,291.2
2024-02-02T02:12:07,2420,42.8014,5.9826,4330,272,186.181,57.025,13.312,36.057,36.636,41.227,4.590,296.2,546.5,291.1
2024-02-02T02:15:07,2420,42.8014,5.9826,4330,272,186.075,56.992,13.312,36.064,36.644,41.231,4.587,296.2,546.5,291.2
2024-02-02T02:18:07,2420,42.8014,5.9826,4330,272,186.084,56.995,13.313,36.063,36.643,41.230,4.586,296.0,546.5,291.1
2024-02-02T02:21:07,2420,42.8014,5.9826,4330,272,185.992,56.964,13.310,36.070,36.650,41.243,4.594,296.2,546.5,291.2
2024-02-02T02:24:08,2420,42.8014,5.9826,4330,272,186.353,57.077,13.312,36.046,36.626,41.220,4.594,296.2,546.4,291.2
2024-02-02T02:27:08,2420,42.8014,5.9826,4330,272,186.098,57.000,13.312,36.062,36.642,41.229,4.587,296.2,546.5,291.1
2024-02-02T02:30:08,2420,42.8014,5.9826,4330,272,186.028,56.976,13.310,36.068,36.648,41.243,4.595,296.2,546.5,291.2
2024-02-02T02:33:07,2420,42.8014,5.9826,4330,272,186.291,57.055,13.310,36.051,36.631,41.224,4.594,296.2,546.5,291.2
2024-02-02T02:36:07,2420,42.8014,5.9826,4330,272,185.990,56.966,13.312,36.070,36.650,41.239,4.589,296.2,546.5,291.2
2024-02-02T02:39:07,2420,42.8014,5.9826,4330,272,186.039,56.977,13.309,36.068,36.648,41.242,4.594,296.2,546.4,291.3
2024-02-02T02:42:07,2420,42.8014,5.9826,4330,272,185.993,56.964,13.310,36.070,36.650,41.240,4.590,296.2,546.5,291.2
2024-02-02T02:45:08,2420,42.8014,5.9826,4330,272,186.084,56.999,13.315,36.062,36.642,41.230,4.589,296.2,546.4,291.1
2024-02-02T02:48:08,2420,42.8014,5.9826,4330,272,186.335,57.069,13.310,36.048,36.628,41.218,4.590,296.2,546.4,291.2
2024-02-02T02:51:08,2420,42.8014,5.9826,4330,272,185.940,56.952,13.313,36.073,36.652,41.247,4.595,296.2,546.4,291.1
2024-02-02T02:54:08,2420,42.8014,5.9826,4330,272,186.135,57.006,13.309,36.061,36.641,41.232,4.591,296.2,546.5,291.3
2024-02-02T02:57:07,2420,42.8014,5.9826,4330,272,186.070,56.987,13.309,36.066,36.646,41.240,4.594,296.1,546.5,291.3
2024-02-02T03:00:07,2420,42.8014,5.9826,4330,272,186.203,57.028,13.309,36.057,36.636,41.227,4.590,296.2,546.4,291.2
2024-02-02T03:03:08,2420,42.8014,5.9826,4330,272,186.060,56.988,13.312,36.065,36.645,41.238,4.593,296.2,546.4,291.1
2024-02-02T03:06:07,2420,42.8014,5.9826,4330,272,186.091,56.997,13.312,36.062,36.642,41.230,4.587,296.2,546.5,291.1
2024-02-02T03:09:07,2420,42.8014,5.9826,4330,272,186.123,57.011,13.315,36.060,36.639,41.232,4.592,296.2,546.5,291.1
2024-02-02T03:12:07,2420,42.8014,5.9826,4330,272,185.918,56.943,13.311,36.075,36.654,41.245,4.590,296.2,546.5,291.2
2024-02-02T03:15:07,2420,42.8014,5.9826,4330,272,186.069,56.989,13.311,36.065,36.645,41.237,4.591,296.2,546.5,291.2
2024-02-02T03:18:08,2420,42.8014,5.9826,4330,272,186.027,56.976,13.311,36.067,36.647,41.238,4.591,296.2,546.5,291.2
2024-02-02T03:21:08,2420,42.8014,5.9826,4330,272,185.866,56.922,13.307,36.080,36.660,41.250,4.590,296.3,546.5,291.3
2024-02-02T03:24:08,2420,42.8014,5.9826,4330,272,186.131,57.004,13.308,36.062,36.642,41.235,4.594,296.2,546.6,291.3
2024-02-02T03:27:07,2420,42.8014,5.9826,4330,272,186.104,56.999,13.310,36.063,36.642,41.230,4.587,296.2,546.6,291.2
2024-02-02T03:30:07,2420,42.8014,5.9826,4330,272,186.157,57.013,13.309,36.060,36.640,41.231,4.592,296.3,546.6,291.3
2024-02-02T03:33:07,2420,42.8014,5.9826,4330,272,185.874,56.928,13.310,36.078,36.658,41.248,4.590,296.2,546.5,291.2
2024-02-02T03:36:07,2420,42.8014,5.9826,4330,272,186.112,57.005,13.313,36.061,36.641,41.234,4.593,296.2,546.5,291.1
2024-02-02T03:39:07,2420,42.8014,5.9826,4330,272,186.085,56.997,13.313,36.063,36.643,41.236,4.593,296.2,546.5,291.1
2024-02-02T03:42:08,2420,42.8014,5.9826,4330,272,186.110,57.005,13.313,36.061,36.641,41.229,4.588,296.2,546.5,291.1
2024-02-02T03:45:08,2420,42.8014,5.9826,4330,272,186.067,56.996,13.317,36.062,36.642,41.236,4.594,296.2,546.5,291.0
2024-02-02T03:48:08,2420,42.8014,5.9826,4330,272,186.195,57.037,13.319,36.053,36.632,41.225,4.592,296.2,546.5,290.9
2024-02-02T03:51:07,2420,42.8014,5.9826,4330,272,186.149,57.013,13.310,36.060,36.640,41.226,4.587,296.2,546.5,291.2
2024-02-02T03:54:07,2420,42.8014,5.9826,4330,272,186.300,57.059,13.310,36.050,36.630,41.221,4.591,296.1,546.6,291.2
2024-02-02T03:57:07,2420,42.8014,5.9826,4330,272,185.835,56.920,13.313,36.079,36.659,41.250,4.592,296.1,546.5,291.1
2024-02-02T04:00:07,2420,42.8014,5.9826,4330,272,186.398,57.087,13.309,36.044,36.624,41.218,4.594,296.1,546.4,291.3
2024-02-02T04:03:07,2420,42.8014,5.9826,4330,272,186.347,57.078,13.314,36.046,36.626,41.221,4.596,296.0,546.5,291.1
2024-02-02T04:06:07,2420,42.8014,5.9826,4330,272,186.296,57.055,13.309,36.052,36.632,41.224,4.593,296.1,546.5,291.3
2024-02-02T04:09:07,2420,42.8014,5.9826,4330,272,186.150,57.013,13.310,36.060,36.640,41.228,4.589,296.1,546.5,291.2
2024-02-02T04:12:08,2420,42.8014,5.9826,4330,272,186.127,57.014,13.317,36.059,36.639,41.231,4.593,296.2,546.5,291.0
2024-02-02T04:15:08,2420,42.8014,5.9826,4330,272,186.350,57.081,13.315,36.045,36.625,41.211,4.586,296.2,546.6,291.1
2024-02-02T04:18:07,2420,42.8014,5.9826,4330,272,186.205,57.031,13.311,36.056,36.635,41.226,4.590,296.2,546.5,291.2
2024-02-02T04:21:07,2420,42.8014,5.9826,4330,272,186.266,57.052,13.313,36.051,36.631,41.221,4.591,296.2,546.5,291.1
2024-02-02T04:24:07,2420,42.8014,5.9826,4330,272,186.224,57.041,13.314,36.053,36.633,41.226,4.593,296.2,546.6,291.1
2024-02-02T04:27:07,2420,42.8014,5.9826,4330,272,185.959,56.963,13.317,36.069,36.649,41.238,4.589,296.2,546.4,291.0
2024-02-02T04:30:07,2420,42.8014,5.9826,4330,272,186.089,56.987,13.305,36.067,36.647,41.234,4.588,296.2,546.5,291.4
2024-02-02T04:33:07,2420,42.8014,5.9826,4330,272,186.430,57.098,13.310,36.042,36.622,41.211,4.590,296.1,546.5,291.2
2024-02-02T04:36:07,2420,42.8014,5.9826,4330,272,186.148,57.012,13.310,36.060,36.640,41.225,4.585,296.2,546.5,291.2
2024-02-02T04:39:07,2420,42.8014,5.9826,4330,272,186.181,57.021,13.309,36.059,36.639,41.235,4.596,296.1,546.5,291.3
2024-02-02T04:42:07,2420,42.8014,5.9826,4330,272,186.023,56.969,13.306,36.071,36.651,41.241,4.590,296.1,546.6,291.4
2024-02-02T04:45:08,2420,42.8014,5.9826,4330,272,186.163,57.015,13.308,36.060,36.640,41.232,4.592,296.1,546.6,291.3
2024-02-02T04:48:08,2420,42.8014,5.9826,4330,272,186.020,56.983,13.318,36.065,36.645,41.238,4.593,296.1,546.6,291.0
2024-02-02T04:51:08,2420,42.8014,5.9826,4330,272,186.290,57.058,13.312,36.050,36.630,41.220,4.591,296.1,546.6,291.2
2024-02-02T04:54:07,2420,42.8014,5.9826,4330,272,185.995,56.968,13.312,36.069,36.649,41.243,4.594,296.2,546.5,291.2
2024-02-02T04:57:07,2420,42.8014,5.9826,4330,272,186.117,57.006,13.313,36.061,36.641,41.230,4.589,296.1,546.5,291.1
2024-02-02T05:00:07,2420,42.8014,5.9826,4330,272,186.045,56.978,13.308,36.068,36.648,41.240,4.592,296.1,546.5,291.3
2024-02-02T05:03:07,2420,42.8014,5.9826,4330,272,186.236,57.036,13.307,36.056,36.635,41.225,4.589,296.2,546.5,291.3
2024-02-02T05:06:07,2420,42.8014,5.9826,4330,272,186.254,57.047,13.312,36.053,36.633,41.219,4.586,296.1,546.5,291.2
2024-02-02T05:09:07,2420,42.8014,5.9826,4330,272,186.289,57.060,13.314,36.049,36.629,41.222,4.593,296.1,546.5,291.1
2024-02-02T05:12:08,2420,42.8014,5.9826,4330,272,186.293,57.056,13.310,36.051,36.631,41.223,4.592,296.2,546.5,291.2
2024-02-02T05:15:08,2420,42.8014,5.9826,4330,272,186.184,57.021,13.308,36.059,36.639,41.236,4.597,296.2,546.5,291.3
2024-02-02T05:18:08,2420,42.8014,5.9826,4330,272,186.132,57.001,13.305,36.063,36.643,41.233,4.590,296.1,546.5,291.4
2024-02-02T05:21:08,2420,42.8014,5.9826,4330,272,186.169,57.018,13.310,36.059,36.638,41.228,4.590,296.1,546.6,291.2
2024-02-02T05:24:07,2420,42.8014,5.9826,4330,272,186.113,57.006,13.313,36.061,36.641,41.231,4.590,296.0,546.5,291.1
2024-02-02T05:27:07,2420,42.8014,5.9826,4330,272,186.129,57.006,13.310,36.061,36.641,41.229,4.588,296.2,546.4,291.2
2024-02-02T05:30:07,2420,42.8014,5.9826,4330,272,186.310,57.062,13.311,36.049,36.629,41.223,4.594,296.1,546.5,291.2
2024-02-02T05:33:07,2420,42.8014,5.9826,4330,272,186.395,57.087,13.309,36.044,36.624,41.217,4.593,296.1,546.5,291.2
2024-02-02T05:36:07,2420,42.8014,5.9826,4330,272,186.379,57.078,13.306,36.047,36.627,41.218,4.591,296.1,546.5,291.4
2024-02-02T05:39:07,2420,42.8014,5.9826,4330,272,186.135,57.007,13.309,36.062,36.642,41.229,4.587,296.1,546.5,291.3
2024-02-02T05:42:08,2420,42.8014,5.9826,4330,272,186.063,56.990,13.313,36.064,36.644,41.231,4.587,296.2,546.5,291.1
2024-02-02T05:45:08,2420,42.8014,5.9826,4330,272,186.080,56.999,13.316,36.062,36.642,41.237,4.596,296.1,546.5,291.0
2024-02-02T05:48:08,2420,42.8014,5.9826,4330,272,186.297,57.059,13.311,36.050,36.630,41.219,4.589,296.2,546.5,291.2
2024-02-02T05:51:07,2420,42.8014,5.9826,4330,272,186.421,57.097,13.311,36.041,36.621,41.213,4.592,296.2,546.5,291.2
2024-02-02T05:54:07,2420,42.8014,5.9826,4330,272,186.179,57.028,13.315,36.056,36.636,41.229,4.593,296.2,546.5,291.1
2024-02-02T05:57:07,2420,42.8014,5.9826,4330,272,186.329,57.073,13.314,36.046,36.626,41.218,4.591,296.0,546.5,291.1
2024-02-02T06:00:08,2420,42.8014,5.9826,4330,272,186.490,57.116,13.310,36.038,36.618,41.212,4.594,296.1,546.5,291.2
2024-02-02T06:03:07,2420,42.8014,5.9826,4330,272,186.361,57.081,13.313,36.045,36.625,41.219,4.594,296.1,546.5,291.1
2024-02-02T06:06:08,2420,42.8014,5.9826,4330,272,186.383,57.091,13.315,36.042,36.622,41.211,4.589,296.0,546.5,291.1
2024-02-02T06:09:08,2420,42.8014,5.9826,4330,272,186.290,57.059,13.313,36.049,36.629,41.223,4.594,296.1,546.4,291.1
2024-02-02T06:12:08,2420,42.8014,5.9826,4330,272,186.259,57.059,13.320,36.048,36.628,41.218,4.590,296.0,546.5,290.9
2024-02-02T06:15:08,2420,42.8014,5.9826,4330,272,186.631,57.163,13.313,36.027,36.608,41.204,4.597,296.0,546.5,291.1
2024-02-02T06:18:08,2420,42.8014,5.9826,4330,272,186.206,57.031,13.311,36.056,36.636,41.225,4.590,296.2,546.5,291.2
2024-02-02T06:21:07,2420,42.8014,5.9826,4330,272,186.391,57.089,13.312,36.043,36.623,41.217,4.594,296.1,546.5,291.1
2024-02-02T06:24:07,2420,42.8014,5.9826,4330,272,186.000,56.973,13.315,36.067,36.647,41.237,4.590,296.1,546.5,291.1
2024-02-02T06:27:07,2420,42.8014,5.9826,4330,272,186.539,57.133,13.311,36.034,36.614,41.209,4.595,296.1,546.5,291.2
2024-02-02T06:30:08,2420,42.8014,5.9826,4330,272,186.371,57.082,13.311,36.045,36.625,41.215,4.590,296.1,546.6,291.2
2024-02-02T06:33:07,2420,42.8014,5.9826,4330,272,186.191,57.028,13.312,36.056,36.636,41.226,4.590,296.1,546.5,291.2
2024-02-02T06:36:07,2420,42.8014,5.9826,4330,272,186.066,56.988,13.311,36.065,36.645,41.232,4.587,296.2,546.5,291.2
2024-02-02T06:39:07,2420,42.8014,5.9826,4330,272,186.087,57.000,13.316,36.061,36.641,41.229,4.588,296.1,546.5,291.0
2024-02-02T06:42:07,2420,42.8014,5.9826,4330,272,185.977,56.971,13.319,36.067,36.647,41.236,4.589,296.1,546.5,290.9
2024-02-02T06:45:07,2420,42.8014,5.9826,4330,272,186.227,57.035,13.309,36.055,36.635,41.223,4.588,296.1,546.5,291.3
2024-02-02T06:48:07,2420,42.8014,5.9826,4330,272,186.346,57.072,13.310,36.047,36.627,41.224,4.597,296.2,546.5,291.2
2024-02-02T06:51:08,2420,42.8014,5.9826,4330,272,186.189,57.025,13.310,36.057,36.637,41.227,4.590,296.2,546.5,291.2
2024-02-02T06:54:08,2420,42.8014,5.9826,4330,272,186.171,57.026,13.315,36.056,36.636,41.220,4.584,296.2,546.5,291.1
2024-02-02T06:57:08,2420,42.8014,5.9826,4330,272,186.250,57.052,13.317,36.050,36.630,41.222,4.592,296.1,546.5,291.0
2024-02-02T07:00:07,2420,42.8014,5.9826,4330,272,186.348,57.080,13.315,36.045,36.625,41.216,4.591,296.2,546.5,291.1
2024-02-02T07:03:08,2420,42.8014,5.9826,4330,272,186.167,57.027,13.317,36.056,36.636,41.226,4.590,296.1,546.4,291.0
2024-02-02T07:06:08,2420,42.8014,5.9826,4330,272,186.151,57.023,13.318,36.056,36.636,41.230,4.594,296.2,546.6,291.0
2024-02-02T07:09:08,2420,42.8014,5.9826,4330,272,186.111,57.010,13.317,36.060,36.639,41.227,4.588,296.1,546.4,291.0
2024-02-02T07:12:07,2420,42.8014,5.9826,4330,272,186.244,57.047,13.314,36.052,36.632,41.227,4.595,296.2,546.5,291.1
2024-02-02T07:15:07,2420,42.8014,5.9826,4330,272,186.380,57.090,13.316,36.042,36.622,41.213,4.591,296.2,546.4,291.0
2024-02-02T07:18:07,2420,42.8014,5.9826,4330,272,186.044,56.993,13.321,36.062,36.642,41.233,4.591,296.2,546.5,290.9
2024-02-02T07:21:08,2420,42.8014,5.9826,4330,272,186.176,57.034,13.320,36.053,36.633,41.225,4.592,296.1,546.5,290.9
2024-02-02T07:24:08,2420,42.8014,5.9826,4330,272,186.224,57.048,13.320,36.050,36.630,41.225,4.594,296.2,546.5,290.9
2024-02-02T07:27:08,2420,42.8014,5.9826,4330,272,186.411,57.109,13.323,36.037,36.617,41.209,4.592,296.2,546.5,290.8
2024-02-02T07:30:07,2420,42.8014,5.9826,4330,272,186.020,56.991,13.324,36.062,36.642,41.233,4.591,296.2,546.4,290.8
2024-02-02T07:33:07,2420,42.8014,5.9826,4330,272,186.020,56.992,13.326,36.061,36.641,41.230,4.589,296.2,546.4,290.7
2024-02-02T07:36:07,2420,42.8014,5.9826,4330,272,186.078,57.006,13.322,36.058,36.638,41.227,4.589,296.1,546.5,290.8
2024-02-02T07:39:08,2420,42.8014,5.9826,4330,272,186.040,56.994,13.322,36.061,36.641,41.233,4.592,296.2,546.5,290.8
2024-02-02T07:42:08,2420,42.8014,5.9826,4330,272,186.149,57.023,13.318,36.056,36.636,41.225,4.589,296.2,546.4,290.9
2024-02-02T07:45:08,2420,42.8014,5.9826,4330,272,186.087,56.998,13.314,36.063,36.642,41.234,4.591,296.2,546.4,291.1
2024-02-02T07:48:07,2420,42.8014,5.9826,4330,272,186.246,57.044,13.311,36.053,36.633,41.221,4.588,296.1,546.4,291.2
2024-02-02T07:51:07,2420,42.8014,5.9826,4330,272,186.295,57.060,13.313,36.049,36.629,41.223,4.593,296.1,546.4,291.1
2024-02-02T07:54:07,2420,42.8014,5.9826,4330,272,186.368,57.088,13.317,36.043,36.623,41.217,4.594,296.2,546.5,291.0
2024-02-02T07:57:08,2420,42.8014,5.9826,4330,272,186.308,57.063,13.311,36.049,36.629,41.222,4.592,296.1,546.5,291.2
2024-02-02T08:00:08,2420,42.8014,5.9826,4330,272,186.247,57.055,13.320,36.049,36.629,41.222,4.593,296.2,546.4,290.9
2024-02-02T08:03:07,2420,42.8014,5.9826,4330,272,186.019,56.981,13.316,36.065,36.645,41.236,4.591,296.2,546.4,291.0
2024-02-02T08:06:07,2420,42.8014,5.9826,4330,272,186.361,57.080,13.312,36.045,36.625,41.218,4.592,296.2,546.5,291.2
2024-02-02T08:09:07,2420,42.8014,5.9826,4330,272,186.216,57.050,13.323,36.049,36.629,41.220,4.591,296.1,546.5,290.8
2024-02-02T08:12:07,2420,42.8014,5.9826,4330,272,186.210,57.047,13.323,36.050,36.630,41.224,4.594,296.2,546.4,290.8
2024-02-02T08:15:08,2420,42.8014,5.9826,4330,272,186.122,57.016,13.320,36.057,36.637,41.228,4.591,296.1,546.4,290.9
2024-02-02T08:18:08,2420,42.8014,5.9826,4330,272,186.159,57.023,13.316,36.056,36.636,41.229,4.593,296.1,546.4,291.0
2024-02-02T08:21:08,2420,42.8014,5.9826,4330,272,186.100,57.019,13.327,36.055,36.635,41.227,4.592,296.2,546.4,290.7
2024-02-02T08:24:07,2420,42.8014,5.9826,4330,272,186.115,57.016,13.321,36.057,36.637,41.228,4.592,296.2,546.4,290.9
2024-02-02T08:27:07,2420,42.8014,5.9826,4330,272,186.163,57.030,13.320,36.054,36.634,41.223,4.589,296.2,546.4,290.9
2024-02-02T08:30:08,2420,42.8014,5.9826,4330,272,186.041,56.994,13.321,36.061,36.641,41.234,4.592,296.1,546.3,290.9
2024-02-02T08:33:07,2420,42.8014,5.9826,4330,272,185.931,56.970,13.330,36.065,36.645,41.241,4.596,296.2,546.4,290.6
2024-02-02T08:36:07,2420,42.8014,5.9826,4330,272,185.903,56.955,13.324,36.069,36.649,41.237,4.588,296.2,546.4,290.8
2024-02-02T08:39:07,2420,42.8014,5.9826,4330,272,185.892,56.949,13.322,36.071,36.651,41.246,4.595,296.2,546.4,290.8
2024-02-02T08:42:07,2420,42.8014,5.9826,4330,272,186.389,57.101,13.322,36.039,36.619,41.217,4.598,296.2,546.3,290.8
2024-02-02T08:45:07,2420,42.8014,5.9826,4330,272,186.283,57.070,13.324,36.045,36.625,41.223,4.598,296.2,546.3,290.8
2024-02-02T08:48:07,2420,42.8014,5.9826,4330,272,185.964,56.974,13.325,36.065,36.645,41.233,4.588,296.1,546.3,290.7
2024-02-02T08:51:08,2420,42.8014,5.9826,4330,272,186.068,57.010,13.328,36.056,36.636,41.227,4.591,296.2,546.3,290.6
2024-02-02T08:54:08,2420,42.8014,5.9826,4330,272,186.106,57.014,13.321,36.058,36.637,41.233,4.595,296.3,546.3,290.9
2024-02-02T08:57:08,2420,42.8014,5.9826,4330,272,186.204,57.045,13.323,36.050,36.630,41.218,4.588,296.2,546.4,290.8
2024-02-02T09:00:07,2420,42.8014,5.9826,4330,272,185.892,56.951,13.323,36.071,36.650,41.244,4.593,296.3,546.4,290.8
2024-02-02T09:03:07,2420,42.8014,5.9826,4330,272,185.927,56.964,13.326,36.067,36.647,41.241,4.594,296.2,546.4,290.7
2024-02-02T09:06:07,2420,42.8014,5.9826,4330,272,186.312,57.080,13.324,36.043,36.623,41.212,4.589,296.3,546.4,290.8
2024-02-02T09:09:07,2420,42.8014,5.9826,4330,272,185.903,56.954,13.323,36.070,36.650,41.242,4.592,296.2,546.4,290.8
2024-02-02T09:12:07,2420,42.8014,5.9826,4330,272,185.947,56.966,13.323,36.067,36.646,41.236,4.589,296.2,546.3,290.8
2024-02-02T09:15:08,2420,42.8014,5.9826,4330,272,186.077,57.009,13.325,36.057,36.637,41.231,4.594,296.2,546.4,290.7
2024-02-02T09:18:08,2420,42.8014,5.9826,4330,272,186.003,56.991,13.329,36.060,36.640,41.237,4.597,296.3,546.4,290.6
2024-02-02T09:21:07,2420,42.8014,5.9826,4330,272,185.875,56.952,13.329,36.069,36.649,41.234,4.585,296.1,546.4,290.6
2024-02-02T09:24:07,2420,42.8014,5.9826,4330,272,186.254,57.072,13.332,36.042,36.622,41.213,4.590,296.2,546.3,290.5
2024-02-02T09:27:07,2420,42.8014,5.9826,4330,272,185.815,56.950,13.342,36.066,36.646,41.242,4.596,296.2,546.3,290.2
2024-02-02T09:30:07,2420,42.8014,5.9826,4330,272,185.878,56.953,13.329,36.069,36.648,41.238,4.589,296.2,546.3,290.6
2024-02-02T09:33:07,2420,42.8014,5.9826,4330,272,186.081,57.022,13.334,36.053,36.632,41.225,4.592,296.2,546.4,290.4
2024-02-02T09:36:07,2420,42.8014,5.9826,4330,272,185.945,56.989,13.341,36.058,36.638,41.233,4.595,296.2,546.3,290.2
2024-02-02T09:39:08,2420,42.8014,5.9826,4330,272,185.882,56.973,13.344,36.061,36.641,41.238,4.597,296.1,546.4,290.1
2024-02-02T09:42:08,2420,42.8014,5.9826,4330,272,186.145,57.051,13.341,36.045,36.625,41.219,4.594,296.2,546.3,290.2
2024-02-02T09:45:08,2420,42.8014,5.9826,4330,272,185.977,56.993,13.336,36.058,36.638,41.230,4.592,296.1,546.2,290.4
2024-02-02T09:48:07,2420,42.8014,5.9826,4330,272,185.688,56.911,13.342,36.075,36.655,41.243,4.589,296.2,546.3,290.2
2024-02-02T09:51:07,2420,42.8014,5.9826,4330,272,185.585,56.878,13.340,36.082,36.662,41.246,4.585,296.2,546.3,290.2
2024-02-02T09:54:07,2420,42.8014,5.9826,4330,272,185.913,56.976,13.339,36.062,36.641,41.237,4.596,296.2,546.2,290.3
2024-02-02T09:57:07,2420,42.8014,5.9826,4330,272,186.008,56.996,13.331,36.059,36.639,41.233,4.594,296.2,546.3,290.5
2024-02-02T10:00:08,2420,42.8014,5.9826,4330,272,185.710,56.906,13.332,36.078,36.658,41.248,4.590,296.2,546.4,290.5